Location: Newark
(42.7133°N, 87.7910°W)
Time: 17:23:27
(UTC+00:00)

Tiros 1 - Pass Details

Date: 29 October 2019
Orbit: 630 x 664 km, 48.4° (Epoch: 21 November)

Event Time Altitude Azimuth Distance (km) Brightness Sun altitude
Exits shadow 10:30:48 35° 217° (SW) 1,065 7.9 -20.8°
Drops below altitude 10° 10:35:04 10° 154° (SSE) 2,073 10.1 -20.0°
Sets 10:37:33 0° 146° (SE) 2,981 11.1 -19.5°
